Location: ASU Dark Sky Observatory
(36.2504°N, 81.4125°W)
Time: 11:41:17
(UTC-04:00)

Amateur Radio Satellites - All Passes

Search period start: 25 September 2016 11:11
Search period end: 26 September 2016 11:11
Location: ASU Dark Sky Observatory, 36.2504°N, 81.4125°W

Satellite Date Start Highest point End Downlink Frequencies (MHz)
Time Altitude Azimuth
HUMSAT D 25 Sep 11:16:59 11:21:04 45° 99° (E) 11:25:10 437.325/437.525
HO-68 25 Sep 11:20:12 11:24:27 17° 302° (WNW) 11:28:42 435.675
FUNcube-1 25 Sep 11:26:06 11:29:42 27° 289° (WNW) 11:33:22 145.935
UWE-3 25 Sep 11:31:16 11:33:35 14° 293° (WNW) 11:35:55 435.000/436.395/437.385
UNISAT 6 25 Sep 11:32:54 11:36:50 35° 262° (W) 11:40:46 437.425
DELFI C3 25 Sep 11:36:20 11:40:10 44° 286° (WNW) 11:43:58 145.870
QB50P1 25 Sep 11:47:29 11:51:22 37° 72° (ENE) 11:55:14 145.935-145.965
DUCHIFAT 1 25 Sep 11:48:51 11:52:36 33° 72° (ENE) 11:56:21 145.980
BEESAT 3 25 Sep 11:49:00 11:52:59 70° 242° (WSW) 11:56:54 437.485
JAS-2 25 Sep 11:58:37 12:04:26 42° 68° (ENE) 12:10:59 435.910
POPSAT HIP 1 25 Sep 12:00:28 12:04:33 52° 74° (ENE) 12:08:38 437.405
BUGSAT 1 25 Sep 12:04:29 12:07:28 20° 69° (ENE) 12:10:26 437.445
PHONESAT 2.4 25 Sep 12:05:32 12:08:13 32° 151° (SSE) 12:10:54 2401.200-2431.200
ANTELSAT 25 Sep 12:10:22 12:12:37 14° 267° (W) 12:14:52 437.575/2403.000
Cosmos 2499 25 Sep 12:10:24 12:12:13 11° 295° (WNW) 12:14:02 435.465 / 435.565
AISAT 25 Sep 12:14:35 12:16:49 14° 93° (E) 12:19:01 437.250
GONETS M04 25 Sep 12:15:25 12:18:54 13° 298° (WNW) 12:22:23
NANOSAT C BR1 25 Sep 12:18:46 12:22:59 84° 73° (ENE) 12:27:11 145.865
50 SAT 25 Sep 12:25:32 12:27:38 15° 94° (E) 12:29:43 437.505
BEESAT 2 25 Sep 12:38:31 12:42:16 39° 245° (WSW) 12:46:00 435.950
UKube-1 25 Sep 12:38:45 12:39:33 10° 92° (E) 12:40:21 .
QB50P2 25 Sep 12:39:32 12:43:35 46° 260° (W) 12:47:39 145.880/145.840
POLYITAN 1 25 Sep 12:41:48 12:45:50 46° 261° (W) 12:49:53 437.675
ESTCUBE 1 25 Sep 12:44:42 12:49:14 66° 101° (E) 12:53:43 437.505/2401.250
Oscar 19 25 Sep 12:48:05 12:50:51 15° 63° (ENE) 12:53:38 437.125/150
HUMSAT D 25 Sep 12:54:08 12:56:16 14° 293° (WNW) 12:58:25 437.325/437.525
VELOX 1 25 Sep 12:56:53 13:01:02 40° 99° (E) 13:05:10 145.980
DX 1 25 Sep 12:59:08 13:02:46 26° 97° (E) 13:06:23 434.975-435.025
AIST 2 25 Sep 12:59:20 13:01:04 12° 46° (NE) 13:02:46 435.215
M-CUBED/EXP-1 PRIME 25 Sep 13:02:20 13:04:56 22° 102° (ESE) 13:07:32 437.505
CUBEBUG 1 25 Sep 13:08:41 13:13:03 77° 103° (ESE) 13:17:21 437.445
Gurwin Techsat 1B 25 Sep 13:22:24 13:25:18 15° 63° (ENE) 13:28:12 435.225
QB50P1 25 Sep 13:24:44 13:27:14 15° 266° (W) 13:29:44 145.935-145.965
DUCHIFAT 1 25 Sep 13:25:36 13:28:20 17° 266° (W) 13:31:06 145.980
BUGSAT 1 25 Sep 13:39:03 13:42:38 28° 263° (W) 13:46:12 437.445
POPSAT HIP 1 25 Sep 13:39:37 13:40:35 11° 268° (W) 13:41:35 437.405
PHONESAT 2.4 25 Sep 13:41:24 13:44:17 50° 346° (NNW) 13:47:11 2401.200-2431.200
JAS-2 25 Sep 13:44:19 13:49:36 29° 267° (W) 13:55:29 435.910
AISAT 25 Sep 13:49:18 13:53:29 44° 287° (WNW) 13:57:38 437.250
50 SAT 25 Sep 13:57:59 14:01:10 28° 288° (WNW) 14:04:20 437.505
TISAT 1 25 Sep 13:59:24 14:02:30 20° 95° (E) 14:05:35 437.305
AUBIESAT-1 25 Sep 14:01:23 14:04:38 58° 289° (WNW) 14:07:53 437.475
SPROUT 25 Sep 14:03:24 14:07:35 58° 286° (WNW) 14:11:45 437.525
Cosmos 2491 25 Sep 14:05:00 14:07:31 11° 75° (ENE) 14:10:01 435.465 / 435.565
YUBILEINY 25 Sep 14:08:01 14:15:10 28° 71° (ENE) 14:22:16 435.215
UKube-1 25 Sep 14:11:40 14:15:54 56° 286° (WNW) 14:20:05 .
AO-7 25 Sep 14:19:57 14:24:44 17° 53° (NE) 14:29:31 29.400- 29.500
PCSat 25 Sep 14:23:25 14:28:08 29° 54° (NE) 14:32:48 145.827
ESTCUBE 1 25 Sep 14:24:10 14:25:25 11° 296° (WNW) 14:26:40 437.505/2401.250
Oscar 19 25 Sep 14:24:27 14:29:36 63° 259° (WSW) 14:34:46 437.125/150
VELOX 1 25 Sep 14:34:27 14:37:08 16° 294° (WNW) 14:39:49 145.980
DX 1 25 Sep 14:35:22 14:38:49 24° 291° (WNW) 14:42:15 434.975-435.025
AIST 2 25 Sep 14:35:48 14:39:58 69° 243° (WSW) 14:44:08 435.215
M-CUBED/EXP-1 PRIME 25 Sep 14:37:22 14:39:19 15° 296° (WNW) 14:41:14 437.505
SWISSCUBE 25 Sep 14:45:03 14:47:35 14° 93° (E) 14:50:06 437.505
Cosmos 2504 25 Sep 14:54:05 14:58:51 18° 69° (ENE) 15:03:45 435.465 / 435.565
BEESAT 25 Sep 14:57:47 15:00:59 18° 94° (E) 15:04:10 436.000
Gurwin Techsat 1B 25 Sep 14:59:24 15:04:40 64° 258° (WSW) 15:09:57 435.225
ITAMSAT 1 25 Sep 15:11:36 15:16:30 45° 71° (ENE) 15:21:25 435.822/435.867
PHONESAT 2.4 25 Sep 15:17:59 15:20:44 34° 3° (N) 15:23:29 2401.200-2431.200
TISAT 1 25 Sep 15:34:34 15:38:06 27° 289° (WNW) 15:41:38 437.305
Cosmos 2491 25 Sep 15:53:58 16:02:42 76° 93° (E) 16:11:31 435.465 / 435.565
YUBILEINY 25 Sep 16:03:56 16:12:23 58° 269° (W) 16:20:48 435.215
ITUPSAT 1 25 Sep 16:06:10 16:11:00 86° 283° (WNW) 16:15:48 437.325
PCSat 25 Sep 16:06:38 16:11:31 35° 251° (WSW) 16:16:22 145.827
AO-7 25 Sep 16:07:55 16:16:15 82° 72° (ENE) 16:24:35 29.400- 29.500
SO-50 25 Sep 16:09:08 16:13:49 50° 115° (ESE) 16:18:28 436.795
SWISSCUBE 25 Sep 16:20:58 16:25:38 52° 287° (WNW) 16:30:17 437.505
AIST 1 25 Sep 16:28:35 16:30:35 13° 72° (ENE) 16:32:35
BEESAT 25 Sep 16:34:24 16:38:54 42° 288° (WNW) 16:43:23 436.000
Cosmos 2504 25 Sep 16:45:25 16:52:49 75° 266° (W) 17:00:44 435.465 / 435.565
MOZHAYETS 4 25 Sep 16:47:47 16:52:14 44° 99° (E) 16:56:39
BRITE-PL 25 Sep 16:50:14 16:52:56 14° 63° (ENE) 16:55:39 437.365/2234.400
ITAMSAT 1 25 Sep 16:52:35 16:56:08 19° 266° (W) 16:59:43 435.822/435.867
PHONESAT 2.4 25 Sep 16:54:08 16:57:06 76° 18° (NNE) 17:00:05 2401.200-2431.200
KKS-1 25 Sep 17:33:00 17:37:26 89° 108° (ESE) 17:41:51 437.445
HORYU 2 25 Sep 17:48:36 17:53:01 85° 75° (ENE) 17:57:26 437.375
SO-50 25 Sep 17:51:02 17:54:32 20° 312° (NW) 17:58:03 436.795
Cosmos 2491 25 Sep 17:54:13 18:00:24 21° 293° (WNW) 18:06:40 435.465 / 435.565
CUBESAT XI-V 25 Sep 18:00:18 18:04:33 33° 97° (E) 18:08:45 437.345
O/OREOS (USA 219) 25 Sep 18:00:25 18:04:37 34° 64° (ENE) 18:08:47 437.305
AIST 1 25 Sep 18:04:21 18:08:24 42° 268° (W) 18:12:25
AO-7 25 Sep 18:04:31 18:09:45 18° 267° (W) 18:15:02 29.400- 29.500
STARS 25 Sep 18:14:12 18:18:32 66° 285° (WNW) 18:22:51 437.465
NOAA 15 25 Sep 18:23:03 18:28:07 48° 72° (ENE) 18:33:13 137.62
BRITE-PL 25 Sep 18:24:59 18:30:39 80° 257° (WSW) 18:36:21 437.365/2234.400
MOZHAYETS 4 25 Sep 18:26:07 18:29:00 16° 294° (WNW) 18:31:52
LilacSat-2 25 Sep 18:28:07 18:31:32 34° 73° (ENE) 18:34:58 437.200
GOMX 1 25 Sep 18:28:42 18:33:57 50° 74° (ENE) 18:39:02 467.674
Cubesat XI-IV 25 Sep 18:29:37 18:34:37 44° 71° (ENE) 18:39:39 437.490
CUTE-I 25 Sep 18:30:37 18:35:38 46° 72° (ENE) 18:40:42 437.470
PHONESAT 2.4 25 Sep 18:30:51 18:33:01 18° 213° (SSW) 18:35:11 2401.200-2431.200
NOAA 18 25 Sep 18:48:49 18:54:10 57° 72° (ENE) 18:59:31 137.9125
DOVE 4 25 Sep 19:04:02 19:08:57 48° 74° (ENE) 19:13:38 437.250
RS-15 25 Sep 19:12:31 19:20:05 20° 99° (E) 19:27:50 29.354- 29.394
STRAND 1 25 Sep 19:37:20 19:40:24 16° 93° (E) 19:43:28 437.568
CUBESAT XI-V 25 Sep 19:38:08 19:41:41 22° 292° (WNW) 19:45:12 437.345
O/OREOS (USA 219) 25 Sep 19:40:26 19:43:44 20° 260° (W) 19:47:02 437.305
CUSAT 1 25 Sep 19:45:58 19:51:24 47° 90° (E) 19:58:11 437.405
HO-68 25 Sep 19:55:57 20:02:46 49° 68° (ENE) 20:09:35 435.675
CUTE 1.7 + AOD 2 25 Sep 20:01:06 20:04:50 31° 72° (ENE) 20:08:37 437.475
CANX-2 25 Sep 20:01:38 20:05:31 37° 73° (ENE) 20:09:27 2200.000
Cosmos 2499 25 Sep 20:04:13 20:10:36 29° 74° (ENE) 20:17:19 435.465 / 435.565
LilacSat-2 25 Sep 20:04:14 20:05:56 13° 267° (W) 20:07:39 437.200
NOAA 15 25 Sep 20:04:32 20:08:06 18° 266° (W) 20:11:42 137.62
SEEDS 25 Sep 20:07:44 20:11:12 26° 71° (ENE) 20:14:42 437.485
GOMX 1 25 Sep 20:08:28 20:12:10 18° 267° (W) 20:15:48 467.674
Cubesat XI-IV 25 Sep 20:11:02 20:14:51 20° 266° (W) 20:18:41 437.490
CUTE-I 25 Sep 20:12:09 20:15:52 19° 266° (W) 20:19:37 437.470
CUBEBUG 2 25 Sep 20:25:05 20:28:16 21° 70° (ENE) 20:31:25 437.445
GONETS M04 25 Sep 20:25:30 20:34:01 50° 78° (ENE) 20:42:24
NOAA 18 25 Sep 20:31:51 20:35:08 16° 267° (W) 20:38:26 137.9125
CINEMA 3 25 Sep 20:35:27 20:40:01 68° 259° (WSW) 20:44:24 145.822/145.860
AAUSAT CUBESAT 2 25 Sep 20:37:42 20:41:19 30° 71° (ENE) 20:44:58 437.432
DOVE 4 25 Sep 20:43:32 20:46:45 17° 267° (W) 20:49:54 437.250
FUNcube-1 25 Sep 20:44:50 20:46:37 13° 66° (ENE) 20:48:24 145.935
UWE-3 25 Sep 20:48:22 20:51:48 25° 71° (ENE) 20:55:12 435.000/436.395/437.385
DANDE 25 Sep 20:52:28 20:56:57 62° 93° (E) 21:03:02 436.750
STRAND 1 25 Sep 21:14:50 21:19:51 53° 287° (WNW) 21:24:50 437.568
COMPASS 1 25 Sep 21:18:48 21:22:55 64° 259° (WSW) 21:27:05 437.405
RS-15 25 Sep 21:19:11 21:30:43 90° 297° (WNW) 21:42:58 29.354- 29.394
ZACube-1 25 Sep 21:23:02 21:26:54 38° 73° (ENE) 21:30:45 437.345
Oscar 11 25 Sep 21:25:43 21:29:45 41° 73° (ENE) 21:33:49 145.826/435.025
CUSAT 1 25 Sep 21:28:51 21:33:46 26° 293° (WNW) 21:39:38 437.405
CUTE 1.7 + AOD 2 25 Sep 21:37:49 21:40:43 18° 266° (W) 21:43:38 437.475
CANX-2 25 Sep 21:39:02 21:41:30 15° 267° (W) 21:43:59 2200.000
ISS 25 Sep 21:39:56 21:43:11 87° 131° (SE) 21:46:27 145.825
SEEDS 25 Sep 21:43:34 21:46:49 22° 265° (W) 21:50:07 437.485
HO-68 25 Sep 21:44:37 21:50:37 29° 264° (W) 21:56:39 435.675
AO-85 25 Sep 21:49:27 21:54:31 48° 115° (ESE) 21:59:20 145.980
Cosmos 2499 25 Sep 21:56:38 22:03:51 50° 269° (W) 22:11:35 435.465 / 435.565
CUBEBUG 2 25 Sep 22:01:08 22:04:44 27° 263° (W) 22:08:18 437.445
HUMSAT D 25 Sep 22:06:18 22:09:25 22° 70° (ENE) 22:12:34 437.325/437.525
PRISM 25 Sep 22:09:35 22:13:41 59° 101° (E) 22:17:43 437.425
JUGNU 25 Sep 22:12:14 22:14:52 13° 171° (S) 22:17:30 437.505
AAUSAT CUBESAT 2 25 Sep 22:13:53 22:16:48 18° 266° (W) 22:19:44 437.432
FUNcube-1 25 Sep 22:18:28 22:22:26 45° 261° (W) 22:26:25 145.935
DELFI C3 25 Sep 22:18:53 22:22:50 68° 76° (ENE) 22:26:50 145.870
GONETS M04 25 Sep 22:22:58 22:30:23 32° 275° (W) 22:37:46
UWE-3 25 Sep 22:24:55 22:28:11 22° 265° (W) 22:31:27 435.000/436.395/437.385
ANTELSAT 25 Sep 22:28:20 22:29:13 10° 92° (E) 22:30:05 437.575/2403.000
DANDE 25 Sep 22:37:57 22:40:45 14° 299° (WNW) 22:43:55 436.750
TIGRISAT 25 Sep 22:47:39 22:50:38 18° 94° (E) 22:53:38 435.000
ZACube-1 25 Sep 23:01:10 23:03:20 14° 267° (W) 23:05:29 437.345
Oscar 11 25 Sep 23:03:46 23:06:03 14° 268° (W) 23:08:20 145.826/435.025
ISS 25 Sep 23:18:19 23:20:04 14° 335° (NNW) 23:21:49 145.825
UNISAT 6 25 Sep 23:26:21 23:30:40 53° 100° (E) 23:35:04 437.425
AO-85 25 Sep 23:31:09 23:35:10 22° 310° (NW) 23:39:00 145.980
RS-15 25 Sep 23:35:14 23:45:03 29° 324° (NW) 23:55:16 29.354- 29.394
ESTCUBE 1 25 Sep 23:41:28 23:45:43 43° 73° (ENE) 23:50:02 437.505/2401.250
HUMSAT D 25 Sep 23:41:34 23:44:54 24° 264° (W) 23:48:16 437.325/437.525
M-CUBED/EXP-1 PRIME 25 Sep 23:45:46 23:49:13 25° 67° (ENE) 23:52:29 437.505
PRISM 25 Sep 23:48:03 23:48:25 10° 296° (WNW) 23:48:48 437.425
VELOX 1 25 Sep 23:51:45 23:55:29 27° 70° (ENE) 23:59:13 145.980
DX 1 25 Sep 23:52:48 23:55:40 17° 67° (ENE) 23:58:33 434.975-435.025
JUGNU 25 Sep 23:59:45 00:03:05 15° 181° (S) 00:06:24 437.505
CUBEBUG 1 26 Sep 00:01:45 00:05:58 45° 73° (ENE) 00:10:11 437.445
ANTELSAT 26 Sep 00:01:52 00:06:12 59° 285° (WNW) 00:10:37 437.575/2403.000
NANOSAT C BR1 26 Sep 00:06:56 00:09:33 16° 94° (E) 00:12:08 145.865
TIGRISAT 26 Sep 00:23:23 00:27:22 35° 288° (WNW) 00:31:27 435.000
QB50P2 26 Sep 00:27:02 00:30:49 32° 97° (E) 00:34:37 145.880/145.840
POLYITAN 1 26 Sep 00:29:16 00:33:04 32° 98° (E) 00:36:51 437.675
50 SAT 26 Sep 00:31:18 00:34:54 75° 76° (ENE) 00:38:32 437.505
AISAT 26 Sep 00:43:24 00:47:50 73° 257° (WSW) 00:52:18 437.250
SO-50 26 Sep 00:43:41 00:47:17 22° 49° (NE) 00:50:49 436.795
AUBIESAT-1 26 Sep 00:44:03 00:48:16 81° 253° (WSW) 00:52:12 437.475
TISAT 1 26 Sep 00:50:17 00:51:41 11° 65° (ENE) 00:53:05 437.305
SRMSAT 26 Sep 00:52:03 00:54:59 14° 173° (S) 00:57:54 437.500
SPROUT 26 Sep 00:53:49 00:58:04 72° 75° (ENE) 01:02:20 437.525
JAS-2 26 Sep 00:54:55 01:02:35 53° 99° (E) 01:09:52 435.910
UKube-1 26 Sep 01:03:03 01:07:23 85° 74° (ENE) 01:11:43 .
UNISAT 6 26 Sep 01:05:00 01:06:55 13° 294° (WNW) 01:08:51 437.425
QB50P1 26 Sep 01:09:54 01:14:07 80° 284° (WNW) 01:18:19 145.935-145.965
DUCHIFAT 1 26 Sep 01:10:26 01:14:38 89° 129° (SE) 01:18:49 145.980
ESTCUBE 1 26 Sep 01:20:03 01:22:42 15° 267° (W) 01:25:23 437.505/2401.250
M-CUBED/EXP-1 PRIME 26 Sep 01:20:08 01:23:37 24° 258° (WSW) 01:26:56 437.505
BUGSAT 1 26 Sep 01:22:46 01:26:38 45° 100° (E) 01:30:29 437.445
POPSAT HIP 1 26 Sep 01:23:17 01:27:24 55° 285° (WNW) 01:31:30 437.405
DX 1 26 Sep 01:27:29 01:31:33 37° 261° (W) 01:35:37 434.975-435.025
VELOX 1 26 Sep 01:28:15 01:31:51 24° 264° (W) 01:35:29 145.980
BEESAT 3 26 Sep 01:37:00 01:40:32 34° 114° (ESE) 01:44:06 437.485
CUBEBUG 1 26 Sep 01:40:07 01:42:25 14° 267° (W) 01:44:45 437.445
NANOSAT C BR1 26 Sep 01:41:31 01:45:21 35° 288° (WNW) 01:49:09 145.865
JUGNU 26 Sep 01:49:26 01:51:16 11° 192° (SSW) 01:53:06 437.505
SWISSCUBE 26 Sep 01:49:49 01:51:58 13° 64° (ENE) 01:54:07 437.505
RS-15 26 Sep 01:57:14 02:03:44 15° 359° (N) 02:10:17 29.354- 29.394
BEESAT 26 Sep 02:02:18 02:05:08 16° 65° (ENE) 02:07:58 436.000
QB50P2 26 Sep 02:03:29 02:06:22 18° 292° (WNW) 02:09:15 145.880/145.840
POLYITAN 1 26 Sep 02:05:43 02:08:36 18° 292° (WNW) 02:11:29 437.675
Cosmos 2491 26 Sep 02:08:15 02:16:01 33° 73° (ENE) 02:23:40 435.465 / 435.565
TISAT 1 26 Sep 02:22:44 02:26:50 53° 260° (W) 02:30:57 437.305
SO-50 26 Sep 02:23:41 02:27:49 36° 247° (WSW) 02:31:53 436.795
BEESAT 2 26 Sep 02:27:18 02:31:11 66° 117° (ESE) 02:35:07 435.950
Oscar 19 26 Sep 02:38:41 02:43:46 56° 101° (E) 02:48:47 437.125/150
SRMSAT 26 Sep 02:40:02 02:43:21 15° 183° (S) 02:46:41 437.500
JAS-2 26 Sep 02:40:27 02:47:07 32° 296° (WNW) 02:53:36 435.910
BUGSAT 1 26 Sep 03:00:01 03:01:35 12° 294° (WNW) 03:03:09 437.445
YUBILEINY 26 Sep 03:05:37 03:13:16 35° 86° (E) 03:20:52 435.215
ITUPSAT 1 26 Sep 03:10:04 03:14:49 82° 75° (ENE) 03:19:36 437.325
BEESAT 3 26 Sep 03:15:33 03:18:16 18° 310° (NW) 03:21:01 437.485
Gurwin Techsat 1B 26 Sep 03:18:13 03:23:30 64° 101° (ESE) 03:28:46 435.225
SWISSCUBE 26 Sep 03:24:31 03:29:12 61° 259° (W) 03:33:55 437.505
ITAMSAT 1 26 Sep 03:27:50 03:31:36 20° 94° (E) 03:35:20 435.822/435.867
Cosmos 2504 26 Sep 03:32:10 03:35:45 14° 81° (E) 03:39:15 435.465 / 435.565
BEESAT 26 Sep 03:37:54 03:42:28 48° 260° (W) 03:47:06 436.000
MOZHAYETS 4 26 Sep 03:47:12 03:51:12 31° 71° (ENE) 03:55:13
Cosmos 2491 26 Sep 04:04:39 04:13:01 50° 271° (W) 04:21:21 435.465 / 435.565
BEESAT 2 26 Sep 04:08:06 04:09:26 11° 314° (NW) 04:10:44 435.950
ISS 26 Sep 04:10:06 04:13:07 32° 35° (NE) 04:16:07 145.825
RS-15 26 Sep 04:12:29 04:22:37 28° 35° (NE) 04:32:35 29.354- 29.394
AO-7 26 Sep 04:13:11 04:20:22 32° 98° (E) 04:27:30 29.400- 29.500
Oscar 19 26 Sep 04:19:32 04:22:34 16° 296° (WNW) 04:25:35 437.125/150
KKS-1 26 Sep 04:28:09 04:32:30 58° 74° (ENE) 04:36:53 437.445
SRMSAT 26 Sep 04:30:29 04:31:42 11° 193° (SSW) 04:32:56 437.500
AIST 2 26 Sep 04:30:40 04:34:33 45° 115° (ESE) 04:38:30 435.215
Gurwin Techsat 1B 26 Sep 04:59:57 05:02:52 15° 297° (WNW) 05:05:47 435.225
CUBESAT XI-V 26 Sep 05:01:13 05:05:01 25° 69° (ENE) 05:08:49 437.345
YUBILEINY 26 Sep 05:01:24 05:09:44 46° 283° (WNW) 05:18:05 435.215
PCSat 26 Sep 05:02:04 05:07:09 43° 111° (ESE) 05:12:16 145.827
ITAMSAT 1 26 Sep 05:06:16 05:11:12 43° 289° (WNW) 05:16:07 435.822/435.867
STARS 26 Sep 05:07:48 05:12:11 77° 74° (ENE) 05:16:34 437.465
Cosmos 2504 26 Sep 05:20:37 05:28:11 81° 277° (W) 05:35:25 435.465 / 435.565
MOZHAYETS 4 26 Sep 05:24:51 05:28:21 22° 265° (W) 05:31:52
HORYU 2 26 Sep 05:42:56 05:46:08 19° 95° (E) 05:49:21 437.375
ISS 26 Sep 05:46:53 05:49:28 21° 230° (SW) 05:52:01 145.825
AO-7 26 Sep 06:05:22 06:13:19 52° 294° (WNW) 06:21:14 29.400- 29.500
KKS-1 26 Sep 06:08:18 06:09:23 11° 268° (W) 06:10:28 437.445
AIST 2 26 Sep 06:10:41 06:13:16 16° 312° (NW) 06:15:52 435.215
CUSAT 1 26 Sep 06:23:16 06:30:12 34° 71° (ENE) 06:36:11 437.405
RS-15 26 Sep 06:24:44 06:37:13 84° 61° (ENE) 06:49:18 29.354- 29.394
AO-85 26 Sep 06:25:01 06:27:47 17° 48° (NE) 06:30:27 145.980
AIST 1 26 Sep 06:30:12 06:34:33 65° 278° (W) 06:38:56
BRITE-PL 26 Sep 06:33:45 06:38:17 40° 97° (E) 06:42:28 437.365/2234.400
GOMX 1 26 Sep 06:35:19 06:37:45 15° 91° (E) 06:40:07 467.674
CUBESAT XI-V 26 Sep 06:38:11 06:42:14 29° 264° (W) 06:46:19 437.345
NOAA 15 26 Sep 06:41:32 06:45:38 22° 95° (E) 06:49:41 137.62
PCSat 26 Sep 06:46:19 06:50:42 24° 307° (NW) 06:55:06 145.827
Cubesat XI-IV 26 Sep 06:50:04 06:54:09 22° 95° (E) 06:58:13 437.490
CUTE-I 26 Sep 06:50:51 06:55:00 23° 95° (E) 06:59:08 437.470
STRAND 1 26 Sep 06:50:51 06:54:15 18° 65° (ENE) 06:57:40 437.568
DOVE 4 26 Sep 07:07:41 07:09:31 13° 92° (E) 07:11:20 437.250
NOAA 18 26 Sep 07:13:52 07:18:37 30° 97° (E) 07:23:20 137.9125
HORYU 2 26 Sep 07:18:45 07:22:44 33° 289° (WNW) 07:26:43 437.375
Cosmos 2504 26 Sep 07:20:40 07:22:36 11° 295° (WNW) 07:24:33 435.465 / 435.565
DANDE 26 Sep 07:32:19 07:40:31 54° 77° (ENE) 07:48:09 436.750
LilacSat-2 26 Sep 07:37:36 07:41:26 79° 101° (ESE) 07:45:17 437.200
AO-85 26 Sep 08:04:38 08:08:22 37° 246° (WSW) 08:11:57 145.980
CUSAT 1 26 Sep 08:05:09 08:12:17 42° 271° (W) 08:18:19 437.405
O/OREOS (USA 219) 26 Sep 08:09:34 08:14:03 66° 108° (ESE) 08:18:36 437.305
GOMX 1 26 Sep 08:11:58 08:16:05 38° 288° (WNW) 08:19:59 467.674
BRITE-PL 26 Sep 08:13:10 08:16:21 18° 295° (WNW) 08:19:24 437.365/2234.400
NOAA 15 26 Sep 08:20:34 08:25:29 39° 290° (WNW) 08:30:21 137.62
STRAND 1 26 Sep 08:28:08 08:33:01 48° 261° (W) 08:37:57 437.568
Cubesat XI-IV 26 Sep 08:29:19 08:34:19 41° 289° (WNW) 08:39:18 437.490
CUTE-I 26 Sep 08:30:10 08:35:08 40° 290° (WNW) 08:40:05 437.470
CINEMA 3 26 Sep 08:32:49 08:36:31 30° 97° (E) 08:40:18 145.822/145.860
RS-15 26 Sep 08:39:21 08:48:09 24° 260° (W) 08:56:50 29.354- 29.394
Cosmos 2499 26 Sep 08:39:41 08:44:55 22° 84° (E) 08:50:04 435.465 / 435.565
DOVE 4 26 Sep 08:43:30 08:47:28 41° 287° (WNW) 08:51:20 437.250
NOAA 18 26 Sep 08:54:25 08:59:12 32° 292° (WNW) 09:03:59 137.9125
PRISM 26 Sep 08:56:28 09:00:04 29° 71° (ENE) 09:03:43 437.425
COMPASS 1 26 Sep 09:04:41 09:08:07 24° 96° (E) 09:11:31 437.405
HO-68 26 Sep 09:13:37 09:20:44 65° 103° (ESE) 09:27:48 435.675
DANDE 26 Sep 09:15:44 09:22:51 32° 274° (W) 09:29:35 436.750
GONETS M04 26 Sep 09:22:36 09:31:15 63° 92° (E) 09:39:57
CUTE 1.7 + AOD 2 26 Sep 09:23:36 09:27:55 88° 291° (WNW) 09:32:13 437.475
CANX-2 26 Sep 09:24:28 09:28:46 73° 284° (WNW) 09:33:03 2200.000
SEEDS 26 Sep 09:28:47 09:33:04 73° 102° (ESE) 09:37:17 437.485
TIGRISAT 26 Sep 09:45:50 09:47:06 11° 65° (ENE) 09:48:22 435.000
O/OREOS (USA 219) 26 Sep 09:52:13 09:53:55 12° 304° (NW) 09:55:37 437.305
CUBEBUG 2 26 Sep 09:53:15 09:57:32 70° 101° (ESE) 10:01:54 437.445
AAUSAT CUBESAT 2 26 Sep 09:57:08 10:01:22 82° 104° (ESE) 10:05:32 437.432
BEESAT 3 26 Sep 09:58:08 09:59:21 11° 46° (NE) 10:00:35 437.485
DELFI C3 26 Sep 10:01:41 10:02:27 10° 91° (E) 10:03:13 145.870
FUNcube-1 26 Sep 10:08:34 10:12:36 37° 98° (E) 10:16:42 145.935
CINEMA 3 26 Sep 10:10:36 10:13:27 18° 291° (WNW) 10:16:21 145.822/145.860
UWE-3 26 Sep 10:15:29 10:19:49 83° 103° (ESE) 10:24:14 435.000/436.395/437.385
UNISAT 6 26 Sep 10:22:56 10:26:45 32° 72° (ENE) 10:30:35 437.425
Cosmos 2499 26 Sep 10:30:26 10:37:29 54° 280° (W) 10:44:22 435.465 / 435.565
PRISM 26 Sep 10:32:23 10:35:22 19° 265° (W) 10:38:22 437.425
COMPASS 1 26 Sep 10:40:08 10:43:32 24° 290° (WNW) 10:46:55 437.405
BEESAT 2 26 Sep 10:48:19 10:51:10 18° 50° (NE) 10:54:00 435.950
ZACube-1 26 Sep 10:49:19 10:53:35 64° 285° (WNW) 10:57:58 437.345
Oscar 11 26 Sep 10:51:07 10:55:26 64° 285° (WNW) 10:59:44 145.826/435.025
PHONESAT 2.4 26 Sep 10:55:51 10:57:36 15° 145° (SE) 10:59:20 2401.200-2431.200
ANTELSAT 26 Sep 10:57:54 11:02:11 86° 74° (ENE) 11:06:27 437.575/2403.000
